User: anonymous   Login
Location: Unspecified
(0.0000°N, 0.0000°E)
Time: 15:48:22
(UTC+00:00)
Language:

Kosmos-1304 - Orbit

View from above orbital plane
View from above orbital plane
View from above satellite
View from above satellite

Ground track
Ground track

The orbit data is extracted from the following two-line orbital elements,

1 12803U 81087A   18197.73093004  .00000038  00000-0  18791-4 0  9991
2 12803  82.9347  75.2897 0045696 182.5936 177.4998 13.87469001242036
Epoch (UTC): 16 July 2018 17:32:32
Eccentricity: 0.0045696
inclination: 82.9347°
perigee height: 904 km
apogee height: 971 km
right ascension of ascending node: 75.2897°
argument of perigee: 182.5936°
revolutions per day: 13.87469001
mean anomaly at epoch: 177.4998°
orbit number at epoch: 24203

The dashed part of the orbit path shows where the satellite is in the earth's shadow,  

DLR